Flag for U.S.A. Weather past 2 weeks in Charlottesville, Virginia, U.S.A.

Now
42 °F

Partly sunny.


Feels Like: 42 °F
Forecast: 27 / 46 °F
Wind: No wind

Location: Charlottesville-Albemarle Airport

Current Time: Feb 1, 2015 at 4:15:14 PM

Latest Report: Feb 1, 2015 at 3:53 PM


Visibility: 10 mi

Pressure: 30.07 "Hg

Humidity: 32%

Dew point: 14 °F

Location of CharlottesvilleLocation

Historic Weather in Charlottesville — Graph

°F

Charlottesville temperature yesterday

Maximum temperature yesterday: 41 °F (at 2:53 PM)
Minimum temperature yesterday: 21 °F (at 5:53 AM)
Average temperature yesterday: 30 °F

Past Weeks' High & Low Weather Summary

 TemperatureHumidityPressure
High55 °F (Jan 18, 2:53 PM)100% (Jan 23, 10:53 PM)30.38 "Hg (Jan 23, 10:53 PM)
Low20 °F (Jan 29, 2:53 AM)16% (Jan 31, 2:53 PM)29.50 "Hg (Jan 24, 1:53 PM)
Average36 °F60%30.01 "Hg
* Reported Jan 17 2:53 PM — Feb 1 2:53 PM, Charlottesville, Weather by CustomWeather, © 2014

Note: Actual official high and low records may vary slightly from our data, if they occured in-between our weather recording intervals... More about our weather records

Advertising

Charlottesville weather history for previous 24 hours

 ConditionsComfort  
Time TempWeatherWind HumidityBarometerVisibility
2:53 PM
Feb 1
42 °FPassing clouds.5 mph30%30.06 "Hg10 mi
1:53 PM42 °FScattered clouds.9 mph30%30.11 "Hg10 mi
12:53 PM41 °FOvercast.No wind32%30.15 "Hg10 mi
11:53 AM39 °FOvercast.6 mph34%30.20 "Hg10 mi
10:53 AM37 °FSunny.5 mph36%30.26 "Hg10 mi
9:53 AM33 °FOvercast.5 mph40%30.28 "Hg10 mi
8:53 AM31 °FOvercast.No wind43%30.27 "Hg10 mi
7:53 AM30 °FMostly cloudy.No wind51%30.27 "Hg10 mi
6:53 AM30 °FOvercast.No wind45%30.26 "Hg10 mi
5:53 AM29 °FOvercast.No wind47%30.26 "Hg10 mi
4:53 AM29 °FOvercast.3 mph47%30.26 "Hg10 mi
3:53 AM29 °FOvercast.3 mph45%30.26 "Hg10 mi
2:53 AM29 °FOvercast.3 mph47%30.26 "Hg10 mi
1:53 AM28 °FClear.5 mph53%30.25 "Hg10 mi
12:53 AM27 °FClear.No wind58%30.25 "Hg10 mi
11:53 PM
Jan 31
28 °FClear.No wind41%30.24 "Hg10 mi
10:53 PM26 °FClear.No wind50%30.24 "Hg10 mi
9:53 PM31 °FClear.No wind33%30.25 "Hg10 mi
8:53 PM29 °FClear.3 mph36%30.26 "Hg10 mi
7:53 PM32 °FClear.3 mph30%30.26 "Hg10 mi
6:53 PM34 °FClear.3 mph25%30.26 "Hg10 mi
5:53 PM36 °FClear.No wind25%30.24 "Hg10 mi
4:53 PM40 °FSunny.7 mph21%30.23 "Hg10 mi
Weather by CustomWeather, © 2014

See weather overviewHow to use our weather pages